H1 CPF 2 NER 2021 8 15 9 227 01 glonass143 H2 2007501 9143 46805 2021 8 15 0 0 0 2021 8 18 23 45 0 900 1 1 0 0 0 1 H9 10 0 59441 0.00000 0 -12672706.618 16868481.912 -14309179.068 10 0 59441 900.00000 0 -12027164.444 15060981.392 -16684455.270 10 0 59441 1800.00000 0 -11456890.901 12944910.936 -18735060.703 10 0 59441 2700.00000 0 -11008143.838 10565331.643 -20421093.129 10 0 59441 3600.00000 0 -10718792.983 7976840.892 -21709757.631 10 0 59441 4500.00000 0 -10616625.057 5241524.011 -22576005.807 10 0 59441 5400.00000 0 -10718091.968 2426598.789 -23003022.403 10 0 59441 6300.00000 0 -11027555.231 -398149.306 -22982550.150 10 0 59441 7200.00000 0 -11537058.449 -3163034.466 -22515046.792 10 0 59441 8100.00000 0 -12226637.289 -5801129.711 -21609671.633 10 0 59441 9000.00000 0 -13065153.723 -8250807.717 -20284102.191 10 0 59441 9900.00000 0 -14011619.055 -10458058.001 -18564184.824 10 0 59441 10800.00000 0 -15016949.715 -12378484.935 -16483426.381 10 0 59441 11700.00000 0 -16026081.516 -13978904.361 -14082336.953 10 0 59441 12600.00000 0 -16980352.937 -15238473.426 -11407636.783 10 0 59441 13500.00000 0 -17820056.689 -16149308.012 -8511342.972 10 0 59441 14400.00000 0 -18487051.706 -16716563.583 -5449754.022 10 0 59441 15300.00000 0 -18927325.202 -16957977.779 -2282352.355 10 0 59441 16200.00000 0 -19093396.629 -16902895.777 929353.512 10 0 59441 17100.00000 0 -18946462.051 -16590821.029 4123024.324 10 0 59441 18000.00000 0 -18458188.581 -16069553.830 7236699.401 10 0 59441 18900.00000 0 -17612083.294 -15392997.301 10209996.282 10 0 59441 19800.00000 0 -16404378.973 -14618724.063 12985277.536 10 0 59441 20700.00000 0 -14844399.439 -13805406.584 15508762.217 10 0 59441 21600.00000 0 -12954388.845 -13010219.548 17731561.030 10 0 59441 22500.00000 0 -10768811.658 -12286323.339 19610615.793 10 0 59441 23400.00000 0 -8333151.930 -11680534.096 21109525.835 10 0 59441 24300.00000 0 -5702260.998 -11231277.626 22199246.261 10 0 59441 25200.00000 0 -2938321.212 -10966912.539 22858645.447 10 0 59441 26100.00000 0 -108509.040 -10904492.484 23074911.667 10 0 59441 27000.00000 0 2717546.948 -11049019.114 22843801.487 10 0 59441 27900.00000 0 5470409.379 -11393217.132 22169725.272 10 0 59441 28800.00000 0 8083468.382 -11917841.146 21065667.931 10 0 59441 29700.00000 0 10495463.019 -12592502.097 19552945.919 10 0 59441 30600.00000 0 12652784.326 -13376979.392 17660804.289 10 0 59441 31500.00000 0 14511465.073 -14222964.610 15425860.610 10 0 59441 32400.00000 0 16038774.121 -15076164.413 12891405.339 10 0 59441 33300.00000 0 17214349.262 -15878674.976 10106571.075 10 0 59441 34200.00000 0 18030821.340 -16571528.456 7125385.935 10 0 59441 35100.00000 0 18493903.598 -17097304.252 4005728.712 10 0 59441 36000.00000 0 18621942.531 -17402694.653 808205.731 10 0 59441 36900.00000 0 18444949.139 -17440915.825 -2405028.676 10 0 59441 37800.00000 0 18003151.586 -17173861.269 -5571484.824 10 0 59441 38700.00000 0 17345130.605 -16573905.413 -8629559.268 10 0 59441 39600.00000 0 16525616.861 -15625279.706 -11519740.663 10 0 59441 40500.00000 0 15603043.968 -14324961.499 -14185775.556 10 0 59441 41400.00000 0 14636961.285 -12683036.701 -16575770.593 10 0 59441 42300.00000 0 13685416.590 -10722519.557 -18643208.831 10 0 59441 43200.00000 0 12802419.932 -8478635.841 -20347859.906 10 0 59441 44100.00000 0 12035596.322 -5997598.543 -21656566.012 10 0 59441 45000.00000 0 11424126.761 -3334926.567 -22543888.256 10 0 59441 45900.00000 0 10997064.648 -553376.121 -22992600.951 10 0 59441 46800.00000 0 10772098.489 2279429.308 -22994024.495 10 0 59441 47700.00000 0 10754812.844 5093571.891 -22548190.645 10 0 59441 48600.00000 0 10938478.209 7819508.476 -21663837.377 10 0 59441 49500.00000 0 11304378.150 10390725.008 -20358233.736 10 0 59441 50400.00000 0 11822659.292 12746266.238 -18656838.404 10 0 59441 51300.00000 0 12453667.673 14833036.069 -16592798.862 10 0 59441 52200.00000 0 13149714.483 16607773.521 -14206301.095 10 0 59441 53100.00000 0 13857196.089 18038622.855 -11543782.752 10 0 59441 54000.00000 0 14518978.328 19106233.561 -8657025.287 10 0 59441 54900.00000 0 15076943.939 19804345.643 -5602143.019 10 0 59441 55800.00000 0 15474595.158 20139837.173 -2438489.153 10 0 59441 56700.00000 0 15659601.289 20132233.816 772499.605 10 0 59441 57600.00000 0 15586183.448 19812702.467 3968497.095 10 0 59441 58500.00000 0 15217235.719 19222572.798 7087496.822 10 0 59441 59400.00000 0 14526093.163 18411450.161 10069012.576 10 0 59441 60300.00000 0 13497872.094 17435000.181 12855247.306 10 0 59441 61200.00000 0 12130326.077 16352498.878 15392207.747 10 0 59441 62100.00000 0 10434181.434 15224251.571 17630743.702 10 0 59441 63000.00000 0 8432937.664 14108988.941 19527492.575 10 0 59441 63900.00000 0 6162140.487 13061349.193 21045711.612 10 0 59441 64800.00000 0 3668156.889 12129551.337 22155982.710 10 0 59441 65700.00000 0 1006501.958 11353356.375 22836777.019 10 0 59441 66600.00000 0 -1760214.201 10762401.110 23074869.124 10 0 59441 67500.00000 0 -4564635.793 10374973.695 22865593.295 10 0 59441 68400.00000 0 -7337211.047 10197281.771 22212937.037 10 0 59441 69300.00000 0 -10008838.053 10223243.698 21129469.921 10 0 59441 70200.00000 0 -12513498.440 10434811.728 19636108.556 10 0 59441 71100.00000 0 -14790770.879 10802813.956 17761721.405 10 0 59441 72000.00000 0 -16788120.813 11288280.276 15542580.053 10 0 59441 72900.00000 0 -18462871.872 11844197.280 13021666.416 10 0 59441 73800.00000 0 -19783777.164 12417618.868 10247848.144 10 0 59441 74700.00000 0 -20732124.855 12952044.094 7274937.340 10 0 59441 75600.00000 0 -21302331.754 13389962.150 4160650.106 10 0 59441 76500.00000 0 -21501999.818 13675456.820 965486.737 10 0 59441 77400.00000 0 -21351433.024 13756759.824 -2248445.603 10 0 59441 78300.00000 0 -20882634.866 13588644.130 -5418644.530 10 0 59441 79200.00000 0 -20137828.791 13134554.817 -8483434.239 10 0 59441 80100.00000 0 -19167564.207 12368385.900 -11383172.776 10 0 59441 81000.00000 0 -18028488.448 11275826.447 -14061420.417 10 0 59441 81900.00000 0 -16780879.277 9855217.514 -16466045.571 10 0 59441 82800.00000 0 -15486042.722 8117882.214 -18550245.821 10 0 59441 83700.00000 0 -14203686.665 6087913.603 -20273463.758 10 0 59441 84600.00000 0 -12989381.438 3801427.990 -21602179.423 10 0 59441 85500.00000 0 -11892214.817 1305314.046 -22510563.816 10 0 59442 0.00000 0 -10952740.283 -1344470.791 -22980980.861 10 0 59442 900.00000 0 -10201305.017 -4084986.292 -23004328.335 10 0 59442 1800.00000 0 -9656826.789 -6848690.609 -22580211.417 10 0 59442 2700.00000 0 -9326072.154 -9566018.444 -21716945.831 10 0 59442 3600.00000 0 -9203463.695 -12168048.896 -20431390.950 10 0 59442 4500.00000 0 -9271424.832 -14589152.127 -18748616.286 10 0 59442 5400.00000 0 -9501246.063 -16769505.226 -16701408.217 10 0 59442 6300.00000 0 -9854435.259 -18657372.974 -14329626.680 10 0 59442 7200.00000 0 -10284494.109 -20211059.052 -11679424.630 10 0 59442 8100.00000 0 -10739044.818 -21400447.199 -8802345.679 10 0 59442 9000.00000 0 -11162216.476 -22208068.995 -5754317.703 10 0 59442 9900.00000 0 -11497189.611 -22629654.790 -2594562.414 10 0 59442 10800.00000 0 -11688790.869 -22674146.123 615557.585 10 0 59442 11700.00000 0 -11686027.764 -22363170.502 3813731.522 10 0 59442 12600.00000 0 -11444456.162 -21730001.974 6937909.401 10 0 59442 13500.00000 0 -10928280.321 -20818052.418 9927503.593 10 0 59442 14400.00000 0 -10112096.787 -19678957.933 12724559.756 10 0 59442 15300.00000 0 -8982208.496 -18370341.446 15274874.579 10 0 59442 16200.00000 0 -7537453.572 -16953345.860 17529039.146 10 0 59442 17100.00000 0 -5789513.542 -15490041.206 19443388.460 10 0 59442 18000.00000 0 -3762687.453 -14040814.222 20980839.472 10 0 59442 18900.00000 0 -1493140.407 -12661849.047 22111602.374 10 0 59442 19800.00000 0 972343.374 -11402803.643 22813752.277 10 0 59442 20700.00000 0 3578052.332 -10304778.235 23073650.910 10 0 59442 21600.00000 0 6261415.503 -9398659.803 22886210.730 10 0 59442 22500.00000 0 8955362.383 -8703911.034 22254996.510 10 0 59442 23400.00000 0 11590878.349 -8227853.841 21192162.254 10 0 59442 24300.00000 0 14099651.152 -7965477.082 19718224.170 10 0 59442 25200.00000 0 16416699.931 -7899776.462 17861673.220 10 0 59442 26100.00000 0 18482878.445 -8002612.562 15658433.748 10 0 59442 27000.00000 0 20247149.088 -8236051.274 13151177.497 10 0 59442 27900.00000 0 21668533.291 -8554130.622 10388505.163 10 0 59442 28800.00000 0 22717656.834 -8904979.906 7424010.440 10 0 59442 29700.00000 0 23377825.280 -9233201.892 4315243.989 10 0 59442 30600.00000 0 23645584.114 -9482417.309 1122597.014 10 0 59442 31500.00000 0 23530739.613 -9597863.656 -2091873.758 10 0 59442 32400.00000 0 23055839.276 -9528937.565 -5265656.614 10 0 59442 33300.00000 0 22255133.458 -9231572.011 -8337006.733 10 0 59442 34200.00000 0 21173061.887 -8670346.423 -11246154.768 10 0 59442 35100.00000 0 19862329.094 -7820238.886 -13936477.716 10 0 59442 36000.00000 0 18381650.154 -6667944.742 -16355608.457 10 0 59442 36900.00000 0 16793262.292 -5212704.310 -18456461.500 10 0 59442 37800.00000 0 15160307.664 -3466603.324 -20198154.447 10 0 59442 38700.00000 0 13544197.965 -1454331.982 -21546806.903 10 0 59442 39600.00000 0 12002072.114 787588.392 -22476201.115 10 0 59442 40500.00000 0 10584454.004 3212079.696 -22968291.601 10 0 59442 41400.00000 0 9333208.588 5763229.900 -23013554.105 10 0 59442 42300.00000 0 8279881.766 8378392.944 -22611167.393 10 0 59442 43200.00000 0 7444493.052 10990578.546 -21769024.725 10 0 59442 44100.00000 0 6834830.779 13531032.650 -20503575.134 10 0 59442 45000.00000 0 6446278.322 15931901.167 -18839497.896 10 0 59442 45900.00000 0 6262177.349 18128866.363 -16809216.796 10 0 59442 46800.00000 0 6254711.465 20063646.305 -14452263.822 10 0 59442 47700.00000 0 6386271.704 21686253.510 -11814504.953 10 0 59442 48600.00000 0 6611245.016 22956919.109 -8947243.300 10 0 59442 49500.00000 0 6878149.115 23847602.872 -5906217.323 10 0 59442 50400.00000 0 7132022.535 24343026.795 -2750514.003 10 0 59442 51300.00000 0 7316968.076 24441190.049 458581.562 10 0 59442 52200.00000 0 7378741.475 24153344.891 3658777.465 10 0 59442 53100.00000 0 7267275.462 23503435.692 6787983.643 10 0 59442 54000.00000 0 6939032.245 22527025.805 9785514.327 10 0 59442 54900.00000 0 6359084.882 21269758.234 12593260.951 10 0 59442 55800.00000 0 5502839.646 19785415.446 15156812.931 10 0 59442 56700.00000 0 4357326.594 18133660.096 17426505.099 10 0 59442 57600.00000 0 2922003.782 16377551.386 19358372.176 10 0 59442 58500.00000 0 1209040.821 14580940.767 20914992.587 10 0 59442 59400.00000 0 -756930.871 12805855.326 22066206.217 10 0 59442 60300.00000 0 -2939591.795 11109977.268 22789693.139 10 0 59442 61200.00000 0 -5292201.082 9544323.815 23071402.811 10 0 59442 62100.00000 0 -7759305.000 8151223.220 22905825.996 10 0 59442 63000.00000 0 -10278817.898 6962670.329 22296104.354 10 0 59442 63900.00000 0 -12784390.711 5999129.471 21253975.415 10 0 59442 64800.00000 0 -15207970.287 5268833.979 19799553.533 10 0 59442 65700.00000 0 -17482444.581 4767611.160 17960950.188 10 0 59442 66600.00000 0 -19544264.783 4479239.881 15773740.018 10 0 59442 67500.00000 0 -21335935.996 4376325.740 13280281.717 10 0 59442 68400.00000 0 -22808273.055 4421657.162 10528905.839 10 0 59442 69300.00000 0 -23922327.218 4569985.492 7572984.291 10 0 59442 70200.00000 0 -24650902.903 4770154.099 4469898.828 10 0 59442 71100.00000 0 -24979600.399 4967486.449 1279928.145 10 0 59442 72000.00000 0 -24907340.122 5106331.836 -1934924.803 10 0 59442 72900.00000 0 -24446345.778 5132660.360 -5112142.137 10 0 59442 73800.00000 0 -23621586.604 4996596.311 -8189912.998 10 0 59442 74700.00000 0 -22469701.783 4654781.476 -11108343.384 10 0 59442 75600.00000 0 -21037452.221 4072466.880 -13810629.492 10 0 59442 76500.00000 0 -19379764.902 3225242.908 -16244170.843 10 0 59442 77400.00000 0 -17557452.453 2100333.147 -18361600.671 10 0 59442 78300.00000 0 -15634704.188 697395.778 -20121712.978 10 0 59442 79200.00000 0 -13676454.479 -971202.686 -21490267.858 10 0 59442 80100.00000 0 -11745739.310 -2880654.079 -22440659.245 10 0 59442 81000.00000 0 -9901152.098 -4994505.576 -22954432.210 10 0 59442 81900.00000 0 -8194505.325 -7265954.527 -23021639.973 10 0 59442 82800.00000 0 -6668795.700 -9639587.565 -22641033.974 10 0 59442 83700.00000 0 -5356557.386 -12053491.852 -21820083.712 10 0 59442 84600.00000 0 -4278671.323 -14441650.672 -20574826.281 10 0 59442 85500.00000 0 -3443679.401 -16736523.608 -18929548.853 10 0 59443 0.00000 0 -2847630.760 -18871703.840 -16916310.598 10 0 59443 900.00000 0 -2474465.222 -20784541.838 -14574313.247 10 0 59443 1800.00000 0 -2296915.802 -22418626.381 -11949133.550 10 0 59443 2700.00000 0 -2277891.335 -23726018.738 -9091831.793 10 0 59443 3600.00000 0 -2372278.692 -24669148.263 -6057954.722 10 0 59443 4500.00000 0 -2529087.785 -25222289.573 -2906452.345 10 0 59443 5400.00000 0 -2693847.358 -25372560.731 301469.910 10 0 59443 6300.00000 0 -2811149.468 -25120401.284 3503541.084 10 0 59443 7200.00000 0 -2827234.466 -24479511.061 6637633.080 10 0 59443 8100.00000 0 -2692506.728 -23476253.230 9642963.971 10 0 59443 9000.00000 0 -2363874.602 -22148547.476 12461272.902 10 0 59443 9900.00000 0 -1806815.665 -20544300.368 15037943.899 10 0 59443 10800.00000 0 -997080.084 -18719439.086 17323057.333 10 0 59443 11700.00000 0 78039.839 -16735630.863 19272349.324 10 0 59443 12600.00000 0 1418927.577 -14657783.282 20848061.282 10 0 59443 13500.00000 0 3013381.164 -12551429.257 22019664.112 10 0 59443 14400.00000 0 4836884.658 -10480104.897 22764443.944 10 0 59443 15300.00000 0 6853402.069 -8502828.565 23067938.810 10 0 59443 16200.00000 0 9016662.007 -6671784.955 22924218.375 10 0 59443 17100.00000 0 11271881.191 -5030309.427 22336001.519 10 0 59443 18000.00000 0 13557856.659 -3611255.532 21314609.380 10 0 59443 18900.00000 0 15809341.285 -2435812.812 19879754.265 10 0 59443 19800.00000 0 17959605.269 -1512823.423 18059167.711 10 0 59443 20700.00000 0 19943078.099 -838625.730 15888073.878 10 0 59443 21600.00000 0 21697961.780 -397431.050 13408517.321 10 0 59443 22500.00000 0 23168706.788 -162217.616 10668556.998 10 0 59443 23400.00000 0 24308247.271 -96104.180 7721341.188 10 0 59443 24300.00000 0 25079901.689 -154145.288 4624080.524 10 0 59443 25200.00000 0 25458858.619 -285472.355 1436938.594 10 0 59443 26100.00000 0 25433184.506 -435689.720 -1778138.301 10 0 59443 27000.00000 0 25004310.194 -549423.754 -4958629.228 10 0 59443 27900.00000 0 24186974.880 -572916.224 -8042660.486 10 0 59443 28800.00000 0 23008629.175 -456551.039 -10970216.615 10 0 59443 29700.00000 0 21508321.888 -157206.063 -13684316.082 10 0 59443 30600.00000 0 19735117.077 359670.986 -16132127.933 10 0 59443 31500.00000 0 17746107.936 1118351.800 -18266006.770 10 0 59443 32400.00000 0 15604111.085 2131555.661 -20044425.371 10 0 59443 33300.00000 0 13375138.258 3399671.597 -21432786.426 10 0 59443 34200.00000 0 11125751.725 4910508.484 -22404097.387 10 0 59443 35100.00000 0 8920414.340 6639584.711 -22939495.403 10 0 59443 36000.00000 0 6818945.096 8550946.158 -23028612.357 10 0 59443 36900.00000 0 4874186.421 10598478.869 -22669773.182 10 0 59443 37800.00000 0 3129980.130 12727661.967 -21870024.018 10 0 59443 38700.00000 0 1619535.775 14877687.901 -20644989.971 10 0 59443 39600.00000 0 364258.566 16983861.521 -19018565.581 10 0 59443 40500.00000 0 -626915.609 18980177.866 -17022444.297 10 0 59443 41400.00000 0 -1357651.783 20801971.025 -14695496.305 10 0 59443 42300.00000 0 -1843810.362 22388523.282 -12083007.089 10 0 59443 43200.00000 0 -2112523.291 23685525.576 -9235791.758 10 0 59443 44100.00000 0 -2200792.572 24647286.422 -6209202.613 10 0 59443 45000.00000 0 -2153671.778 25238597.066 -3062049.666 10 0 59443 45900.00000 0 -2022108.775 25436175.109 144544.581 10 0 59443 46800.00000 0 -1860541.900 25229626.636 3348333.499 10 0 59443 47700.00000 0 -1724352.089 24621887.113 6487154.369 10 0 59443 48600.00000 0 -1667279.256 23629123.246 9500132.467 10 0 59443 49500.00000 0 -1738912.498 22280100.553 12328857.866 10 0 59443 50400.00000 0 -1982360.240 20615043.658 14918512.239 10 0 59443 51300.00000 0 -2432198.710 18684037.370 17218924.295 10 0 59443 52200.00000 0 -3112785.221 16545035.407 19185534.088 10 0 59443 53100.00000 0 -4037007.324 14261559.771 20780248.277 10 0 59443 54000.00000 0 -5205520.686 11900186.120 21972170.724 10 0 59443 54900.00000 0 -6606508.222 9527919.083 22738195.226 10 0 59443 55800.00000 0 -8215971.384 7209565.720 23063449.618 10 0 59443 56700.00000 0 -9998542.592 5005215.158 22941583.252 10 0 59443 57600.00000 0 -11908786.293 2967927.866 22374892.545 10 0 59443 58500.00000 0 -13892935.904 1141729.511 21374282.008 10 0 59443 59400.00000 0 -15890995.812 -440008.298 19959061.112 10 0 59443 60300.00000 0 -17839122.386 -1755733.900 18156580.075 10 0 59443 61200.00000 0 -19672185.903 -2796380.123 16001710.642 10 0 59443 62100.00000 0 -21326407.528 -3565500.273 13536180.773 10 0 59443 63000.00000 0 -22741961.764 -4078870.203 10807774.923 10 0 59443 63900.00000 0 -23865435.612 -4363573.319 7869414.503 10 0 59443 64800.00000 0 -24652041.227 -4456607.216 4778135.533 10 0 59443 65700.00000 0 -25067488.604 -4403070.826 1593982.873 10 0 59443 66600.00000 0 -25089438.727 -4254008.930 -1621157.488 10 0 59443 67500.00000 0 -24708475.044 -4064005.655 -4804765.181 10 0 59443 68400.00000 0 -23928551.267 -3888629.534 -7894907.185 10 0 59443 69300.00000 0 -22766895.637 -3781839.231 -10831449.931 10 0 59443 70200.00000 0 -21253374.797 -3793460.934 -13557237.288 10 0 59443 71100.00000 0 -19429343.405 -3966845.520 -16019210.662 10 0 59443 72000.00000 0 -17346027.439 -4336805.931 -18169448.480 10 0 59443 72900.00000 0 -15062508.937 -4927923.293 -19966104.296 10 0 59443 73800.00000 0 -12643396.660 -5753294.607 -21374224.849 10 0 59443 74700.00000 0 -10156280.397 -6813775.892 -22366431.964 10 0 59443 75600.00000 0 -7669075.493 -8097753.693 -22923455.111 10 0 59443 76500.00000 0 -5247368.542 -9581455.364 -23034504.468 10 0 59443 77400.00000 0 -2951874.973 -11229785.704 -22697477.551 10 0 59443 78300.00000 0 -836114.177 -12997655.317 -21918995.740 10 0 59443 79200.00000 0 1055601.541 -14831745.346 -20714270.357 10 0 59443 80100.00000 0 2689781.174 -16672634.762 -19106801.206 10 0 59443 81000.00000 0 4044906.337 -18457201.187 -17127913.718 10 0 59443 81900.00000 0 5112073.091 -20121194.723 -14816143.925 10 0 59443 82800.00000 0 5895099.133 -21601876.824 -12216483.482 10 0 59443 83700.00000 0 6410093.732 -22840613.639 -9379499.663 10 0 59443 84600.00000 0 6684510.408 -23785315.064 -6360347.679 10 0 59443 85500.00000 0 6755723.961 -24392617.234 -3217694.954 10 0 59444 0.00000 0 6669193.533 -24629717.114 -12578.637 10 0 59444 900.00000 0 6476290.717 -24475782.103 3192781.475 10 0 59444 1800.00000 0 6231885.173 -23922876.863 6336190.207 10 0 59444 2700.00000 0 5991791.289 -22976367.150 9356682.104 10 0 59444 3600.00000 0 5810183.502 -21654785.988 12195700.074 10 0 59444 4500.00000 0 5737090.193 -19989166.825 14798225.163 10 0 59444 5400.00000 0 5816071.734 -18021872.390 17113835.958 10 0 59444 6300.00000 0 6082180.556 -15804967.916 19097677.792 10 0 59444 7200.00000 0 6560288.986 -13398206.461 20711323.700 10 0 59444 8100.00000 0 7263855.200 -10866709.691 21923511.425 10 0 59444 9000.00000 0 8194179.275 -8278439.752 22710743.127 10 0 59444 9900.00000 0 9340180.994 -5701566.368 23057736.921 10 0 59444 10800.00000 0 10678709.481 -3201837.207 22957722.139 10 0 59444 11700.00000 0 12175372.800 -840059.375 22412572.820 10 0 59444 12600.00000 0 13785854.111 1330204.643 21432776.769 10 0 59444 13500.00000 0 15457660.855 3264632.153 20037240.360 10 0 59444 14400.00000 0 17132235.377 4929744.652 18252932.048 10 0 59444 15300.00000 0 18747340.091 6304055.455 16114370.523 10 0 59444 16200.00000 0 20239618.556 7378713.336 13662966.264 10 0 59444 17100.00000 0 21547226.053 8157615.777 10946228.081 10 0 59444 18000.00000 0 22612419.688 8656987.280 8016849.058 10 0 59444 18900.00000 0 23383999.295 8904440.740 4931688.818 10 0 59444 19800.00000 0 23819496.068 8937561.558 1750671.387 10 0 59444 20700.00000 0 23887015.987 8802074.461 -1464379.966 10 0 59444 21600.00000 0 23566659.340 8549670.894 -4650948.069 10 0 59444 22500.00000 0 22851455.284 8235589.456 -7747043.369 10 0 59444 23400.00000 0 21747770.809 7916052.540 -10692417.029 10 0 59444 24300.00000 0 20275175.687 7645668.720 -13429741.138 10 0 59444 25200.00000 0 18465768.081 7474911.918 -15905732.169 10 0 59444 26100.00000 0 16362988.390 7447785.221 -18072194.937 10 0 59444 27000.00000 0 14019970.612 7599769.308 -19886966.158 10 0 59444 27900.00000 0 11497500.013 7956143.273 -21314738.838 10 0 59444 28800.00000 0 8861662.518 8530749.666 -22327751.193 10 0 59444 29700.00000 0 6181284.036 9325256.666 -22906326.819 10 0 59444 30600.00000 0 3525266.549 10328949.080 -23039255.749 10 0 59444 31500.00000 0 959932.027 11519057.419 -22724009.307 10 0 59444 32400.00000 0 -1453515.467 12861611.550 -21966784.972 10 0 59444 33300.00000 0 -3661304.298 14312783.217 -20782380.685 10 0 59444 34200.00000 0 -5619090.670 15820661.108 -19193901.426 10 0 59444 35100.00000 0 -7293552.874 17327383.915 -17232304.025 10 0 59444 36000.00000 0 -8663519.226 18771541.744 -14935789.279 10 0 59444 36900.00000 0 -9720584.098 20090744.884 -12349053.475 10 0 59444 37800.00000 0 -10469188.098 21224251.894 -9522414.094 10 0 59444 38700.00000 0 -10926160.938 22115546.482 -6510826.955 10 0 59444 39600.00000 0 -11119748.042 22714754.741 -3372814.296 10 0 59444 40500.00000 0 -11088163.678 22980801.157 -169324.964 10 0 59444 41400.00000 0 -10877733.216 22883212.785 3037450.806 10 0 59444 42300.00000 0 -10540704.158 22403495.911 6185288.580 10 0 59444 43200.00000 0 -10132819.431 21536027.561 9213135.309 10 0 59444 44100.00000 0 -9710756.043 20288424.600 12062289.863 10 0 59444 45000.00000 0 -9329537.605 18681375.104 14677535.722 10 0 59444 45900.00000 0 -9040029.954 16747939.103 17008204.323 10 0 59444 46800.00000 0 -8886625.293 14532347.696 19009149.104 10 0 59444 47700.00000 0 -8905212.114 12088350.385 20641612.121 10 0 59444 48600.00000 0 -9121516.027 9477178.776 21873967.416 10 0 59444 49500.00000 0 -9549881.018 6765210.470 22682327.661 10 0 59444 50400.00000 0 -10192542.331 4021429.164 23051003.083 10 0 59444 51300.00000 0 -11039421.767 1314785.056 22972804.429 10 0 59444 52200.00000 0 -12068454.597 -1288436.346 22449184.353 10 0 59444 53100.00000 0 -13246435.324 -3727129.182 21490214.449 10 0 59444 54000.00000 0 -14530348.034 -5947662.948 20114397.932 10 0 59444 54900.00000 0 -15869126.932 -7905864.804 18348320.864 10 0 59444 55800.00000 0 -17205774.617 -9568606.909 16226147.659 10 0 59444 56700.00000 0 -18479750.451 -10914933.458 13788969.545 10 0 59444 57600.00000 0 -19629529.762 -11936680.849 11084017.392 10 0 59444 58500.00000 0 -20595226.904 -12638565.356 8163753.213 10 0 59444 59400.00000 0 -21321172.025 -13037734.853 5084857.136 10 0 59444 60300.00000 0 -21758332.768 -13162803.594 1907128.967 10 0 59444 61200.00000 0 -21866478.123 -13052410.891 -1307674.339 10 0 59444 62100.00000 0 -21615992.166 -12753364.790 -4497042.518 10 0 59444 63000.00000 0 -20989259.855 -12318449.661 -7598933.257 10 0 59444 63900.00000 0 -19981565.045 -11803991.008 -10552986.205 10 0 59444 64800.00000 0 -18601461.431 -11267281.366 -13301705.319 10 0 59444 65700.00000 0 -16870599.466 -10763977.136 -15791585.597 10 0 59444 66600.00000 0 -14823015.446 -10345577.504 -17974161.401 10 0 59444 67500.00000 0 -12503911.717 -10057093.026 -19806955.355 10 0 59444 68400.00000 0 -9967978.498 -9935003.359 -21254308.934 10 0 59444 69300.00000 0 -7277327.198 -10005591.107 -22288078.352 10 0 59444 70200.00000 0 -4499121.353 -10283722.723 -22888182.259 10 0 59444 71100.00000 0 -1703003.823 -10772128.240 -23042990.800 10 0 59444 72000.00000 0 1041572.567 -11461210.437 -22749548.743 10 0 59444 72900.00000 0 3668000.048 -12329391.509 -22013628.710 10 0 59444 73800.00000 0 6115046.494 -13343982.642 -20849613.837 10 0 59444 74700.00000 0 8329156.716 -14462539.715 -19280212.448 10 0 59444 75600.00000 0 10266429.553 -15634647.898 -17336010.601 10 0 59444 76500.00000 0 11894189.459 -16804059.804 -15054871.414 10 0 59444 77400.00000 0 13192088.303 -17911096.928 -12481193.129 10 0 59444 78300.00000 0 14152692.983 -18895213.022 -9665040.579 10 0 59444 79200.00000 0 14781536.009 -19697611.237 -6661167.197 10 0 59444 80100.00000 0 15096628.721 -20263804.583 -3527946.967 10 0 59444 81000.00000 0 15127459.467 -20546011.744 -326237.429 10 0 59444 81900.00000 0 14913520.570 -20505287.241 2881803.864 10 0 59444 82800.00000 0 14502427.633 -20113296.262 6033926.017 10 0 59444 83700.00000 0 13947711.674 -19353659.498 9068991.010 10 0 59444 84600.00000 0 13306378.073 -18222811.463 11928156.021 10 0 59444 85500.00000 0 12636335.795 -16730336.265 14556009.004 99